Volver al catálogo

OV1-14

ActivoMilitarHEO
NORAD 3174·PAYLOAD·🇺🇸 United States

Lanzado Apr 6, 1968 desde Vandenberg Space Force Base

Loading…

Próximos Pases (próximas 24 horas)

TLE

ActualizadoSource: Space-Track

Época: Sep 13, 2026, 04:09 UTC

1 03174U 68026B   26256.17354406  .00000109  00000-0  19331-3 0  9998
2 03174  99.9939  26.4721 4011787 234.8482 333.1287  6.96775230482440

Sigue OV1-14 en tiempo real con AllMySat

Download on the App Store